Weather History for Edinburgh Airport, United Kingdom

Change the Weather History Date:

Friday, April 26, 2013

  Actual Average Record
Temperature  
Mean Temperature 44 °F -  
Max Temperature 50 °F 57 °F 64 °F (2004)
Min Temperature 37 °F 41 °F 35 °F (2011)
Degree Days  
Heating Degree Days 22    
Moisture  
Dew Point 35 °F    
Average Humidity 79    
Maximum Humidity 93    
Minimum Humidity 57    
Precipitation  
Precipitation 0.00 in 0.07 in - ()
Sea Level Pressure  
Sea Level Pressure 29.93 in    
Wind  
Wind Speed 9 mph ()    
Max Wind Speed 18 mph    
Max Gust Speed 28 mph    
Visibility 6.2 miles    
Events Rain , Thunderstorm    
Averages and records for this station are not official NWS values.
T = Trace of Precipitation, MM = Missing Value Source: Averaged Metar Reports

Daily Weather History Graph

Daily Weather History Graph

Search for Another Location

Airport:

Trip Planner

Search our weather history database for the weather conditions in past years. The results will help you decide how hot, cold, wet, or windy it might be!

Date:

Astronomy

Apr. 26, 2013 Rise Set
Actual Time 5:40 AM BST 8:42 PM BST
Civil Twilight 4:58 AM BST 9:25 PM BST
Nautical Twilight 4:00 AM BST 10:23 PM BST
Astronomical Twilight 2:41 AM BST 11:45 PM BST
Moon 10:02 PM BST (4/26) 5:50 AM BST (4/26)
Length of Visible Light 16h 27m
Length of Day
15h 01m
Waxing Gibbous, 99% of the Moon is Illuminated
Apr 26
Waxing Gibbous
May 2
Last Quarter
May 10
New
May 18
First Quarter
May 25
Full

Hourly Weather History & Observations

Time (BST) Temp. Windchill Dew Point Humidity Pressure Visibility Wind Dir Wind Speed Gust Speed Precip Events Conditions
12:20 AM 39.2 °F 33.6 °F 33.8 °F 81% 30.04 in 6.2 mi WSW 8.1 mph - N/A   Unknown
12:50 AM 39.2 °F 33.0 °F 35.6 °F 87% 30.04 in 6.2 mi WSW 9.2 mph - N/A   Unknown
1:20 AM 39.2 °F 31.2 °F 33.8 °F 81% 30.01 in 6.2 mi WSW 13.8 mph - N/A   Unknown
1:50 AM 37.4 °F 29.8 °F 33.8 °F 87% 30.01 in 6.2 mi WSW 11.5 mph - N/A   Unknown
2:20 AM 37.4 °F 32.1 °F 35.6 °F 93% 30.01 in 6.2 mi WSW 6.9 mph - N/A   Scattered Clouds
2:50 AM 37.4 °F 30.8 °F 33.8 °F 87% 30.01 in 6.2 mi WSW 9.2 mph - N/A   Partly Cloudy
3:20 AM 37.4 °F 31.4 °F 33.8 °F 87% 30.01 in 6.2 mi WSW 8.1 mph - N/A   Unknown
3:50 AM 37.4 °F 29.8 °F 33.8 °F 87% 29.98 in 6.2 mi WSW 11.5 mph - N/A   Unknown
4:20 AM 37.4 °F 29.8 °F 33.8 °F 87% 29.98 in 6.2 mi WSW 11.5 mph - N/A   Unknown
4:50 AM 37.4 °F 29.8 °F 32.0 °F 81% 29.98 in 6.2 mi WSW 11.5 mph - N/A   Partly Cloudy
5:20 AM 37.4 °F 29.8 °F 32.0 °F 81% 29.95 in 6.2 mi WSW 11.5 mph - N/A   Partly Cloudy
5:50 AM 37.4 °F 29.3 °F 33.8 °F 87% 29.95 in 6.2 mi SW 12.7 mph - N/A   Unknown
6:20 AM 37.4 °F 29.3 °F 33.8 °F 87% 29.95 in 6.2 mi WSW 12.7 mph - N/A   Unknown
6:50 AM 39.2 °F 30.8 °F 33.8 °F 81% 29.95 in - SW 15.0 mph - N/A   Clear
7:20 AM 39.2 °F 30.5 °F 33.8 °F 81% 29.92 in 6.2 mi SW 16.1 mph - N/A   Partly Cloudy
7:50 AM 41.0 °F 32.8 °F 35.6 °F 81% 29.92 in 6.2 mi WSW 16.1 mph - N/A   Partly Cloudy
8:20 AM 42.8 °F 36.2 °F 35.6 °F 76% 29.92 in 6.2 mi WSW 12.7 mph - N/A   Scattered Clouds
8:50 AM 42.8 °F 34.5 °F 33.8 °F 70% 29.92 in 6.2 mi West 18.4 mph - N/A   Mostly Cloudy
9:20 AM 44.6 °F 37.4 °F 33.8 °F 66% 29.89 in 6.2 mi West 16.1 mph 27.6 mph N/A   Mostly Cloudy
9:50 AM 44.6 °F 37.2 °F 35.6 °F 71% 29.89 in 6.2 mi West 17.3 mph - N/A   Mostly Cloudy
10:20 AM 46.4 °F 40.1 °F 35.6 °F 66% 29.89 in 6.2 mi West 15.0 mph - N/A   Mostly Cloudy
10:50 AM 46.4 °F 40.7 °F 33.8 °F 62% 29.89 in 6.2 mi West 12.7 mph - N/A   Mostly Cloudy
11:20 AM 46.4 °F 40.4 °F 33.8 °F 62% 29.89 in 6.2 mi West 13.8 mph - N/A   Mostly Cloudy
11:50 AM 46.4 °F 41.1 °F 32.0 °F 57% 29.86 in 6.2 mi West 11.5 mph - N/A   Mostly Cloudy
12:20 PM 46.4 °F 41.5 °F 32.0 °F 57% 29.86 in 6.2 mi West 10.4 mph - N/A   Mostly Cloudy
12:50 PM 41.0 °F 38.0 °F 35.6 °F 81% 29.86 in 6.2 mi West 4.6 mph - N/A Rain Light Rain Showers
1:20 PM 50.0 °F - 39.2 °F 66% 29.86 in 6.2 mi NNW 12.7 mph - N/A   Scattered Clouds
1:50 PM 41.0 °F 38.0 °F 33.8 °F 76% 29.86 in 6.2 mi NW 4.6 mph - N/A Rain Light Rain Showers
2:20 PM 48.2 °F - 39.2 °F 71% 29.83 in 6.2 mi Variable 3.5 mph - N/A   Unknown
2:50 PM 48.2 °F - 37.4 °F 66% 29.83 in 6.2 mi ENE 6.9 mph - N/A   Mostly Cloudy
3:20 PM 41.0 °F 37.1 °F 33.8 °F 76% 29.86 in 6.2 mi NNE 5.8 mph - N/A   Mostly Cloudy
3:50 PM 41.0 °F 39.0 °F 35.6 °F 81% 29.86 in 6.2 mi Variable 3.5 mph - N/A Rain , Thunderstorm Light Rain
4:20 PM 44.6 °F 39.2 °F 37.4 °F 76% 29.86 in 6.2 mi East 10.4 mph - N/A   Scattered Clouds
4:50 PM 44.6 °F 42.2 °F 37.4 °F 76% 29.86 in 6.2 mi SE 4.6 mph - N/A   Partly Cloudy
5:20 PM 46.4 °F 43.5 °F 37.4 °F 71% 29.86 in 6.2 mi SE 5.8 mph - N/A   Scattered Clouds
5:50 PM 44.6 °F 38.4 °F 37.4 °F 76% 29.89 in 6.2 mi ENE 12.7 mph - N/A   Mostly Cloudy
6:20 PM 42.8 °F 37.0 °F 37.4 °F 81% 29.89 in 6.2 mi ENE 10.4 mph - N/A   Mostly Cloudy
6:50 PM 42.8 °F 39.3 °F 37.4 °F 81% 29.89 in 6.2 mi East 5.8 mph - N/A   Mostly Cloudy
7:20 PM 41.0 °F 37.1 °F 37.4 °F 87% 29.92 in 6.2 mi ENE 5.8 mph - N/A   Mostly Cloudy
7:50 PM 41.0 °F - 35.6 °F 81% 29.92 in 6.2 mi Calm Calm - N/A   Scattered Clouds
8:20 PM 41.0 °F - 37.4 °F 87% 29.92 in 6.2 mi Calm Calm - N/A   Mostly Cloudy
8:50 PM 41.0 °F 36.4 °F 37.4 °F 87% 29.95 in 6.2 mi East 6.9 mph - N/A Rain Rain
9:20 PM 37.4 °F - 35.6 °F 93% 29.95 in 6.2 mi Calm Calm - N/A Rain Light Rain
9:50 PM 39.2 °F - 37.4 °F 93% 29.95 in 6.2 mi West 2.3 mph - N/A   Mostly Cloudy
10:20 PM 39.2 °F 37.0 °F 37.4 °F 93% 29.95 in 6.2 mi Variable 3.5 mph - N/A   Partly Cloudy
10:50 PM 41.0 °F 37.1 °F 37.4 °F 87% 29.98 in 6.2 mi NNW 5.8 mph - N/A   Partly Cloudy
11:20 PM 41.0 °F 36.4 °F 35.6 °F 81% 29.98 in 6.2 mi NNW 6.9 mph - N/A   Mostly Cloudy
11:50 PM 41.0 °F 36.4 °F 35.6 °F 81% 29.98 in 6.2 mi NNW 6.9 mph - N/A Rain Light Rain